Time,TemperatureF,DewpointF,PressureIn,WindDirection,WindDirectionDegrees,WindSpeedMPH,WindSpeedGustMPH,Humidity,HourlyPrecipIn,Conditions,Clouds,dailyrainin,SoftwareType,DateUTC
2013-06-11 00:03:00,61.0,-99.9,-100.00,North,0,2.0,13.0,-999,0.01,,,0.86,,2013-06-11 04:03:00,
2013-06-11 00:13:00,61.0,-99.9,-100.00,North,0,2.0,13.0,-999,0.01,,,0.86,,2013-06-11 04:13:00,
2013-06-11 00:23:00,61.0,-99.9,-100.00,North,2,0.0,6.0,-999,0.01,,,0.86,,2013-06-11 04:23:00,
2013-06-11 00:34:00,61.0,-99.9,-100.00,North,0,0.0,0.0,-999,0.02,,,0.87,,2013-06-11 04:34:00,
2013-06-11 00:43:00,61.0,-99.9,-100.00,North,0,0.0,0.0,-999,0.02,,,0.87,,2013-06-11 04:43:00,
2013-06-11 00:53:00,61.0,-99.9,-100.00,North,0,0.0,0.0,-999,0.02,,,0.87,,2013-06-11 04:53:00,
2013-06-11 01:02:00,61.0,-99.9,-100.00,North,0,1.0,3.0,-999,0.02,,,0.88,,2013-06-11 05:02:00,
2013-06-11 01:12:00,61.0,-99.9,-100.00,North,0,1.0,3.0,-999,0.02,,,0.88,,2013-06-11 05:12:00,
2013-06-11 01:22:00,61.0,-99.9,-100.00,NE,55,0.0,6.0,-999,0.03,,,0.89,,2013-06-11 05:22:00,
2013-06-11 01:32:00,61.0,-99.9,-100.00,North,0,0.0,3.0,-999,0.02,,,0.89,,2013-06-11 05:32:00,
2013-06-11 01:42:00,61.0,-99.9,-100.00,North,0,0.0,3.0,-999,0.02,,,0.89,,2013-06-11 05:42:00,
2013-06-11 01:52:00,61.0,-99.9,-100.00,North,0,1.0,5.0,-999,0.07,,,0.94,,2013-06-11 05:52:00,
2013-06-11 02:02:00,61.0,-99.9,-100.00,North,0,0.0,1.0,-999,0.09,,,0.97,,2013-06-11 06:02:00,
2013-06-11 02:12:00,61.0,-99.9,-100.00,North,0,0.0,1.0,-999,0.09,,,0.97,,2013-06-11 06:12:00,
2013-06-11 02:22:00,61.0,-99.9,-100.00,North,0,0.0,1.0,-999,0.08,,,0.97,,2013-06-11 06:22:00,
2013-06-11 02:32:00,61.0,-99.9,-100.00,North,0,0.0,3.0,-999,0.08,,,0.97,,2013-06-11 06:32:00,
2013-06-11 02:42:00,61.0,-99.9,-100.00,North,0,0.0,3.0,-999,0.08,,,0.97,,2013-06-11 06:42:00,
2013-06-11 02:52:00,61.0,-99.9,-100.00,North,0,2.0,5.0,-999,0.03,,,0.97,,2013-06-11 06:52:00,
2013-06-11 03:02:00,61.0,-99.9,-100.00,North,2,1.0,5.0,-999,0.00,,,0.97,,2013-06-11 07:02:00,
2013-06-11 03:13:00,61.0,-99.9,-100.00,North,2,1.0,5.0,-999,0.00,,,0.97,,2013-06-11 07:13:00,
2013-06-11 03:22:00,61.0,-99.9,-100.00,North,1,1.0,5.0,-999,0.00,,,0.97,,2013-06-11 07:22:00,
2013-06-11 03:32:00,61.0,-99.9,-100.00,North,2,2.0,5.0,-999,0.00,,,0.97,,2013-06-11 07:32:00,
2013-06-11 03:42:00,61.0,-99.9,-100.00,North,1,2.0,5.0,-999,0.01,,,0.98,,2013-06-11 07:42:00,
2013-06-11 03:52:00,61.0,-99.9,-100.00,North,1,2.0,5.0,-999,0.01,,,0.98,,2013-06-11 07:52:00,
2013-06-11 04:03:00,61.0,-99.9,-100.00,North,1,0.0,3.0,-999,0.04,,,1.01,,2013-06-11 08:03:00,
2013-06-11 04:12:00,61.0,-99.9,-100.00,North,1,0.0,3.0,-999,0.04,,,1.01,,2013-06-11 08:12:00,
2013-06-11 04:22:00,61.0,-99.9,-100.00,North,2,0.0,1.0,-999,0.05,,,1.02,,2013-06-11 08:22:00,
2013-06-11 04:32:00,61.0,-99.9,-100.00,North,2,0.0,0.0,-999,0.06,,,1.03,,2013-06-11 08:32:00,
2013-06-11 04:42:00,61.0,-99.9,-100.00,North,2,0.0,0.0,-999,0.06,,,1.03,,2013-06-11 08:42:00,
2013-06-11 04:52:00,61.0,-99.9,-100.00,North,2,0.0,0.0,-999,0.05,,,1.03,,2013-06-11 08:52:00,
2013-06-11 05:02:00,61.0,-99.9,-100.00,North,2,0.0,0.0,-999,0.03,,,1.04,,2013-06-11 09:02:00,
2013-06-11 05:12:00,61.0,-99.9,-100.00,North,2,0.0,0.0,-999,0.03,,,1.04,,2013-06-11 09:12:00,
2013-06-11 05:22:00,62.0,-99.9,-100.00,North,2,0.0,0.0,-999,0.02,,,1.04,,2013-06-11 09:22:00,
2013-06-11 05:33:00,62.0,-99.9,-100.00,North,2,0.0,0.0,-999,0.02,,,1.05,,2013-06-11 09:33:00,
2013-06-11 05:43:00,62.0,-99.9,-100.00,North,2,0.0,0.0,-999,0.02,,,1.05,,2013-06-11 09:43:00,
2013-06-11 05:53:00,62.0,-99.9,-100.00,North,2,0.0,0.0,-999,0.02,,,1.05,,2013-06-11 09:53:00,
2013-06-11 06:03:00,62.0,-99.9,-100.00,North,2,0.0,0.0,-999,0.01,,,1.05,,2013-06-11 10:03:00,
2013-06-11 06:12:00,62.0,-99.9,-100.00,North,2,0.0,0.0,-999,0.01,,,1.05,,2013-06-11 10:12:00,
2013-06-11 06:23:00,62.0,-99.9,-100.00,North,2,0.0,0.0,-999,0.01,,,1.05,,2013-06-11 10:23:00,
2013-06-11 06:33:00,62.0,-99.9,-100.00,North,2,0.0,0.0,-999,0.00,,,1.05,,2013-06-11 10:33:00,
2013-06-11 06:43:00,62.0,-99.9,-100.00,North,2,0.0,0.0,-999,0.00,,,1.05,,2013-06-11 10:43:00,
2013-06-11 06:52:00,62.0,-99.9,-100.00,North,2,0.0,0.0,-999,0.00,,,1.05,,2013-06-11 10:52:00,
2013-06-11 07:02:00,62.0,-99.9,-100.00,North,2,0.0,0.0,-999,0.00,,,1.05,,2013-06-11 11:02:00,
2013-06-11 07:12:00,62.0,-99.9,-100.00,North,2,0.0,0.0,-999,0.00,,,1.05,,2013-06-11 11:12:00,
2013-06-11 07:22:00,62.0,-99.9,-100.00,North,2,0.0,0.0,-999,0.00,,,1.05,,2013-06-11 11:22:00,
2013-06-11 07:32:00,62.0,-99.9,-100.00,North,2,0.0,0.0,-999,0.00,,,1.05,,2013-06-11 11:32:00,
2013-06-11 07:42:00,62.0,-99.9,-100.00,North,2,0.0,0.0,-999,0.00,,,1.05,,2013-06-11 11:42:00,
2013-06-11 07:52:00,63.0,-99.9,-100.00,North,2,0.0,0.0,-999,0.00,,,1.05,,2013-06-11 11:52:00,
2013-06-11 08:02:00,63.0,-99.9,-100.00,North,2,0.0,0.0,-999,0.00,,,1.05,,2013-06-11 12:02:00,
2013-06-11 08:12:00,63.0,-99.9,-100.00,North,2,0.0,0.0,-999,0.00,,,1.05,,2013-06-11 12:12:00,
2013-06-11 08:22:00,63.0,-99.9,-100.00,North,2,0.0,0.0,-999,0.00,,,1.05,,2013-06-11 12:22:00,
2013-06-11 08:32:00,64.0,-99.9,-100.00,North,2,0.0,0.0,-999,0.00,,,1.05,,2013-06-11 12:32:00,
2013-06-11 08:42:00,64.0,-99.9,-100.00,North,2,0.0,0.0,-999,0.00,,,1.05,,2013-06-11 12:42:00,
2013-06-11 08:52:00,64.0,-99.9,-100.00,North,2,0.0,0.0,-999,0.00,,,1.05,,2013-06-11 12:52:00,
2013-06-11 09:02:00,65.0,-99.9,-100.00,North,1,0.0,0.0,-999,0.00,,,1.05,,2013-06-11 13:02:00,
2013-06-11 09:12:00,65.0,-99.9,-100.00,North,1,0.0,0.0,-999,0.00,,,1.05,,2013-06-11 13:12:00,
2013-06-11 09:22:00,65.0,-99.9,-100.00,North,1,0.0,0.0,-999,0.00,,,1.05,,2013-06-11 13:22:00,
2013-06-11 09:32:00,66.0,-99.9,-100.00,North,1,0.0,0.0,-999,0.00,,,1.05,,2013-06-11 13:32:00,
2013-06-11 09:42:00,66.0,-99.9,-100.00,North,1,0.0,0.0,-999,0.00,,,1.05,,2013-06-11 13:42:00,
2013-06-11 09:52:00,67.0,-99.9,-100.00,North,1,0.0,0.0,-999,0.00,,,1.05,,2013-06-11 13:52:00,
2013-06-11 10:02:00,68.0,-99.9,-100.00,North,1,0.0,0.0,-999,0.00,,,1.05,,2013-06-11 14:02:00,
2013-06-11 10:12:00,68.0,-99.9,-100.00,North,1,0.0,0.0,-999,0.00,,,1.05,,2013-06-11 14:12:00,
2013-06-11 10:22:00,70.0,-99.9,-100.00,North,1,0.0,0.0,-999,0.00,,,1.05,,2013-06-11 14:22:00,
2013-06-11 10:32:00,76.0,-99.9,-100.00,North,2,1.0,6.0,-999,0.00,,,1.05,,2013-06-11 14:32:00,
2013-06-11 10:53:00,79.0,-99.9,-100.00,North,1,1.0,3.0,-999,0.00,,,1.05,,2013-06-11 14:53:00,
2013-06-11 11:02:00,81.0,-99.9,-100.00,North,1,0.0,3.0,-999,0.00,,,1.05,,2013-06-11 15:02:00,
2013-06-11 11:22:00,82.0,-99.9,-100.00,North,0,0.0,2.0,-999,0.00,,,1.05,,2013-06-11 15:22:00,
2013-06-11 11:33:00,80.0,-99.9,-100.00,North,1,0.0,2.0,-999,0.00,,,1.05,,2013-06-11 15:33:00,
2013-06-11 11:53:00,83.0,-99.9,-100.00,North,0,1.0,3.0,-999,0.00,,,1.05,,2013-06-11 15:53:00,
2013-06-11 12:03:00,81.0,-99.9,-100.00,North,0,0.0,3.0,-999,0.00,,,1.05,,2013-06-11 16:03:00,
2013-06-11 12:23:00,81.0,-99.9,-100.00,North,1,1.0,6.0,-999,0.00,,,1.05,,2013-06-11 16:23:00,
2013-06-11 12:33:00,80.0,-99.9,-100.00,North,0,1.0,6.0,-999,0.00,,,1.05,,2013-06-11 16:33:00,
2013-06-11 12:53:00,79.0,-99.9,-100.00,North,1,1.0,12.0,-999,0.00,,,1.05,,2013-06-11 16:53:00,
2013-06-11 13:02:00,78.0,-99.9,-100.00,North,0,0.0,10.0,-999,0.00,,,1.05,,2013-06-11 17:02:00,
2013-06-11 13:12:00,78.0,-99.9,-100.00,North,0,0.0,10.0,-999,0.00,,,1.05,,2013-06-11 17:12:00,
2013-06-11 13:32:00,79.0,-99.9,-100.00,North,1,0.0,6.0,-999,0.00,,,1.01,,2013-06-11 17:32:00,
2013-06-11 13:43:00,80.0,-99.9,-100.00,North,2,1.0,8.0,-999,0.00,,,0.98,,2013-06-11 17:43:00,
2013-06-11 13:53:00,80.0,-99.9,-100.00,North,2,1.0,8.0,-999,0.00,,,0.98,,2013-06-11 17:53:00,
2013-06-11 14:02:00,77.0,-99.9,-100.00,North,0,0.0,3.0,-999,0.00,,,0.92,,2013-06-11 18:02:00,
2013-06-11 14:12:00,77.0,-99.9,-100.00,North,0,0.0,3.0,-999,0.00,,,0.92,,2013-06-11 18:12:00,
2013-06-11 14:22:00,78.0,-99.9,-100.00,North,1,1.0,6.0,-999,0.00,,,0.91,,2013-06-11 18:22:00,
2013-06-11 14:33:00,74.0,-99.9,-100.00,North,1,0.0,5.0,-999,0.00,,,0.89,,2013-06-11 18:33:00,
2013-06-11 14:43:00,74.0,-99.9,-100.00,North,1,0.0,5.0,-999,0.00,,,0.89,,2013-06-11 18:43:00,
2013-06-11 14:53:00,71.0,-99.9,-100.00,North,2,0.0,12.0,-999,0.22,,,1.10,,2013-06-11 18:53:00,
2013-06-11 15:03:00,70.0,-99.9,-100.00,North,1,0.0,6.0,-999,0.23,,,1.08,,2013-06-11 19:03:00,
2013-06-11 15:13:00,70.0,-99.9,-100.00,North,1,0.0,6.0,-999,0.23,,,1.08,,2013-06-11 19:13:00,
2013-06-11 15:22:00,71.0,-99.9,-100.00,North,1,0.0,2.0,-999,0.23,,,1.08,,2013-06-11 19:22:00,
2013-06-11 15:33:00,74.0,-99.9,-100.00,North,1,0.0,2.0,-999,0.23,,,1.04,,2013-06-11 19:33:00,
2013-06-11 15:42:00,74.0,-99.9,-100.00,North,1,0.0,2.0,-999,0.23,,,1.04,,2013-06-11 19:42:00,
2013-06-11 15:53:00,79.0,-99.9,-100.00,North,1,0.0,5.0,-999,0.01,,,1.01,,2013-06-11 19:53:00,
2013-06-11 16:03:00,76.0,-99.9,-100.00,North,1,0.0,5.0,-999,0.00,,,0.96,,2013-06-11 20:03:00,
2013-06-11 16:12:00,76.0,-99.9,-100.00,North,1,0.0,5.0,-999,0.00,,,0.96,,2013-06-11 20:12:00,
2013-06-11 16:22:00,74.0,-99.9,-100.00,North,2,0.0,5.0,-999,0.00,,,0.95,,2013-06-11 20:22:00,
2013-06-11 16:32:00,71.0,-99.9,-100.00,North,1,0.0,3.0,-999,0.01,,,0.92,,2013-06-11 20:32:00,
2013-06-11 16:42:00,71.0,-99.9,-100.00,North,1,0.0,3.0,-999,0.01,,,0.92,,2013-06-11 20:42:00,
2013-06-11 16:52:00,72.0,-99.9,-100.00,North,0,0.0,3.0,-999,0.01,,,0.90,,2013-06-11 20:52:00,
2013-06-11 17:02:00,70.0,-99.9,-100.00,North,1,1.0,13.0,-999,0.01,,,0.89,,2013-06-11 21:02:00,
2013-06-11 17:12:00,70.0,-99.9,-100.00,North,1,1.0,13.0,-999,0.01,,,0.89,,2013-06-11 21:12:00,
2013-06-11 17:22:00,70.0,-99.9,-100.00,North,1,2.0,13.0,-999,0.01,,,0.88,,2013-06-11 21:22:00,
2013-06-11 17:33:00,71.0,-99.9,-100.00,North,1,1.0,12.0,-999,0.00,,,0.83,,2013-06-11 21:33:00,
2013-06-11 17:42:00,71.0,-99.9,-100.00,North,1,1.0,12.0,-999,0.00,,,0.83,,2013-06-11 21:42:00,
2013-06-11 17:53:00,72.0,-99.9,-100.00,North,1,1.0,6.0,-999,0.00,,,0.78,,2013-06-11 21:53:00,
2013-06-11 18:03:00,72.0,-99.9,-100.00,North,1,6.0,17.0,-999,0.00,,,0.68,,2013-06-11 22:03:00,
2013-06-11 18:13:00,72.0,-99.9,-100.00,North,1,6.0,17.0,-999,0.00,,,0.68,,2013-06-11 22:13:00,
2013-06-11 18:22:00,71.0,-99.9,-100.00,North,1,1.0,13.0,-999,0.00,,,0.68,,2013-06-11 22:22:00,
2013-06-11 18:33:00,72.0,-99.9,-100.00,North,1,4.0,20.0,-999,0.00,,,0.67,,2013-06-11 22:33:00,
2013-06-11 18:42:00,72.0,-99.9,-100.00,North,1,4.0,20.0,-999,0.00,,,0.67,,2013-06-11 22:42:00,
2013-06-11 18:52:00,70.0,-99.9,-100.00,North,1,3.0,16.0,-999,0.00,,,0.65,,2013-06-11 22:52:00,
2013-06-11 19:03:00,70.0,-99.9,-100.00,North,1,0.0,14.0,-999,0.00,,,0.60,,2013-06-11 23:03:00,
2013-06-11 19:12:00,70.0,-99.9,-100.00,North,1,0.0,14.0,-999,0.00,,,0.60,,2013-06-11 23:12:00,
2013-06-11 19:22:00,69.0,-99.9,-100.00,North,1,1.0,10.0,-999,0.00,,,0.57,,2013-06-11 23:22:00,
2013-06-11 19:32:00,69.0,-99.9,-100.00,North,1,0.0,13.0,-999,0.00,,,0.56,,2013-06-11 23:32:00,
2013-06-11 19:43:00,69.0,-99.9,-100.00,North,1,0.0,13.0,-999,0.00,,,0.56,,2013-06-11 23:43:00,
2013-06-11 19:52:00,69.0,-99.9,-100.00,North,1,1.0,5.0,-999,0.00,,,0.55,,2013-06-11 23:52:00,
2013-06-11 20:02:00,68.0,-99.9,-100.00,North,1,1.0,8.0,-999,0.00,,,0.54,,2013-06-12 00:02:00,
2013-06-11 20:12:00,68.0,-99.9,-100.00,North,1,1.0,8.0,-999,0.00,,,0.54,,2013-06-12 00:12:00,
2013-06-11 20:22:00,68.0,-99.9,-100.00,North,1,1.0,12.0,-999,0.00,,,0.54,,2013-06-12 00:22:00,
2013-06-11 20:32:00,68.0,-99.9,-100.00,North,1,2.0,14.0,-999,0.00,,,0.54,,2013-06-12 00:32:00,
2013-06-11 20:42:00,68.0,-99.9,-100.00,North,1,2.0,14.0,-999,0.00,,,0.54,,2013-06-12 00:42:00,
2013-06-11 20:52:00,68.0,-99.9,-100.00,North,1,3.0,17.0,-999,0.00,,,0.53,,2013-06-12 00:52:00,
2013-06-11 21:02:00,67.0,-99.9,-100.00,North,1,2.0,12.0,-999,0.00,,,0.52,,2013-06-12 01:02:00,
2013-06-11 21:12:00,67.0,-99.9,-100.00,North,1,2.0,12.0,-999,0.00,,,0.52,,2013-06-12 01:12:00,
2013-06-11 21:22:00,67.0,-99.9,-100.00,North,1,1.0,12.0,-999,0.00,,,0.52,,2013-06-12 01:22:00,
2013-06-11 21:32:00,67.0,-99.9,-100.00,North,1,1.0,12.0,-999,0.00,,,0.51,,2013-06-12 01:32:00,
2013-06-11 21:42:00,67.0,-99.9,-100.00,North,1,1.0,12.0,-999,0.00,,,0.51,,2013-06-12 01:42:00,
2013-06-11 21:52:00,66.0,-99.9,-100.00,North,1,0.0,8.0,-999,0.00,,,0.51,,2013-06-12 01:52:00,
2013-06-11 22:02:00,66.0,-99.9,-100.00,North,1,0.0,3.0,-999,0.00,,,0.50,,2013-06-12 02:02:00,
2013-06-11 22:12:00,66.0,-99.9,-100.00,North,1,0.0,3.0,-999,0.00,,,0.50,,2013-06-12 02:12:00,
2013-06-11 22:22:00,66.0,-99.9,-100.00,North,1,0.0,5.0,-999,0.00,,,0.49,,2013-06-12 02:22:00,
2013-06-11 22:32:00,65.0,-99.9,-100.00,North,1,0.0,3.0,-999,0.00,,,0.48,,2013-06-12 02:32:00,
2013-06-11 22:42:00,65.0,-99.9,-100.00,North,1,0.0,3.0,-999,0.00,,,0.47,,2013-06-12 02:42:00,
2013-06-11 22:52:00,65.0,-99.9,-100.00,North,1,0.0,3.0,-999,0.00,,,0.47,,2013-06-12 02:52:00,
2013-06-11 23:02:00,64.0,-99.9,-100.00,North,1,1.0,10.0,-999,0.00,,,0.44,,2013-06-12 03:02:00,
2013-06-11 23:12:00,64.0,-99.9,-100.00,North,1,1.0,10.0,-999,0.00,,,0.44,,2013-06-12 03:12:00,
2013-06-11 23:22:00,64.0,-99.9,-100.00,North,1,0.0,6.0,-999,0.00,,,0.44,,2013-06-12 03:22:00,
2013-06-11 23:33:00,64.0,-99.9,-100.00,North,1,0.0,5.0,-999,0.00,,,0.44,,2013-06-12 03:33:00,
2013-06-11 23:43:00,64.0,-99.9,-100.00,North,1,0.0,5.0,-999,0.00,,,0.44,,2013-06-12 03:43:00,
2013-06-11 23:54:00,63.0,-99.9,-100.00,North,1,1.0,7.0,-999,0.00,,,0.44,,2013-06-12 03:54:00,